Location: *
(38.8181°S, 103.0319°E)
Time: 20:28:15
(UTC+00:00)

Daily predictions for brighter satellites

Satellite Brightness Start Highest point End
(mag) Time Altitude Azimuth Time Altitude Azimuth Time Altitude Azimuth
Cosmos 1470 Rocket 4.1 12:08:03 10° SSW 12:12:30 60° W 12:16:54 10° N
Cosmos 1725 Rocket 4.2 12:10:15 10° NNW 12:16:29 72° W 12:22:51 10° S
NOAA 12 4.2 12:25:34 57° NE 12:25:34 57° NE 12:30:06 10° N
SL-24 R/B - RUBIN 2 3.6 12:21:41 10° NW 12:25:40 72° W 12:25:40 72° W
Cosmos 2233 Rocket 3.9 12:23:52 10° N 12:30:07 89° WSW 12:36:31 10° S
Atlas Centaur 2 3.3 12:27:48 10° WNW 12:33:43 33° NNW 12:34:49 31° N
Meteor 2-12 Rocket 4.3 12:28:11 10° N 12:34:21 88° E 12:38:06 26° S
Cosmos 1656 Rocket 3.5 12:30:20 10° SSW 12:35:29 78° S 12:35:29 78° S
USA 229 DEB 4.5 12:32:55 10° SSW 12:37:56 36° SSE 12:37:56 36° SSE
USA 229 4.5 12:33:00 10° SSW 12:38:02 36° SSE 12:38:02 36° SSE
Cosmos 2346 Rocket 4.4 12:35:05 10° S 12:41:20 82° W 12:47:26 10° N
USA 267 3.1 12:45:25 71° SE 12:46:15 89° SSW 12:52:52 10° NW
ATLAS CENTAUR R/B 2.8 12:44:15 10° SW 12:48:52 42° WNW 12:49:13 41° NW
COSMOS 2406 4.2 13:08:14 10° NW 13:12:40 45° WNW 13:12:40 45° WNW
Cosmos 1844 Rocket 4.3 21:19:08 10° NNE 21:24:03 31° ENE 21:29:00 10° SE
IDEFIX/ARIANE 42P 3.7 21:25:47 10° NE 21:30:42 42° ESE 21:33:03 27° SSE
CZ-3 R/B 3.4 21:32:30 39° WNW 21:38:24 52° NNW 21:45:23 10° ENE
CZ-4C R/B 3.3 21:40:51 45° SSW 21:40:51 45° SSW 21:46:11 10° SSE
Cosmos 44 Rocket 3.7 21:45:34 63° E 21:45:34 63° E 21:50:20 10° SE
Cosmos 1727 Rocket 3.9 21:43:49 10° N 21:50:01 85° E 21:56:21 10° S
Cosmos 1726 4.1 21:50:21 25° SE 21:51:21 28° ESE 21:54:37 10° NE
PAYLOAD A 4.0 21:51:40 10° NNE 21:57:07 90° WSW 21:58:10 60° SSW
Meteor 2-15 Rocket 4.3 21:56:12 10° NNW 22:02:19 72° W 22:08:30 10° S
Cosmos 1339 Rocket 4.4 22:00:34 10° NNW 22:06:46 72° W 22:13:10 10° S
USA 32 4.2 22:04:08 10° N 22:09:22 71° E 22:14:40 10° S
COSMOS 2406 3.6 22:06:31 20° SSW 22:10:35 61° ESE 22:16:14 10° NE
Cosmos 836 Rocket 4.4 22:16:42 57° WSW 22:17:14 61° WNW 22:22:23 10° N
Cosmos 1844 4.0 22:14:13 10° NNW 22:19:57 72° ENE 22:25:48 10° SSE
Cosmos 2173 Rocket 4.2 22:15:58 10° S 22:22:09 69° E 22:28:13 10° NNE
CZ-4 R/B 2.3 22:21:09 10° NNE 22:25:08 51° ESE 22:29:15 10° S
Cosmos 1356 3.7 22:23:29 10° N 22:27:00 68° E 22:30:34 10° SSE
Cosmos 1766 Rocket 3.4 22:24:54 10° NNW 22:29:17 67° W 22:33:42 10° S
Cosmos 1802 Rocket 4.3 22:23:07 10° S 22:29:29 69° E 22:35:40 10° NNE
Cosmos 2285 Rocket 3.9 22:25:51 12° SSW 22:31:47 78° WNW 22:38:05 10° N
Hubble Space Telescope 2.7 22:31:24 17° NNW 22:32:26 19° N 22:35:22 10° NE
Cosmos 44 3.5 22:31:59 38° WNW 22:33:39 54° SW 22:38:52 10° SSE
Cosmos 1743 Rocket 3.9 22:35:52 10° N 22:40:18 70° E 22:44:47 10° SSE
Cosmos 968 Rocket 3.3 22:35:19 10° NNW 22:40:26 81° WSW 22:45:40 10° SSE
Tiangong 2 1.9 22:40:17 38° S 22:40:27 39° S 22:43:34 10° ESE
MSX 3.8 22:35:50 10° N 22:41:34 68° WNW 22:47:20 10° SSW
OAO 2 Rocket 3.7 22:40:50 30° WNW 22:43:11 56° N 22:48:16 10° ENE
Meteor 2-2 Rocket 4.2 22:37:34 10° S 22:43:19 89° W 22:48:58 10° N
CSL-04 Rocket 3.8 22:38:26 10° N 22:43:52 56° W 22:49:18 10° SSW
Cosmos 2151 4.0 22:40:14 10° NNE 22:44:18 47° E 22:48:27 10° SSE
ERS-2 4.3 22:41:46 10° NNW 22:42:28 14° NNW 22:42:28 14° NNW
Cosmos 2058 4.1 22:43:17 10° NNE 22:47:14 45° E 22:51:15 10° SSE
Cosmos 2263 Rocket 4.2 22:51:03 11° SSW 22:51:03 11° SSW 22:51:24 10° SSW
SMAP 3.0 22:45:21 10° N 22:50:01 76° WNW 22:54:47 10° SSW
SL-27 R/B 4.2 22:47:14 10° S 22:50:33 33° ESE 22:53:45 10° NE
CZ-2C R/B 2.8 22:46:05 10° NNW 22:50:34 38° W 22:53:27 19° SW
Cosmos 2123 Rocket 4.3 22:48:08 10° N 22:54:21 72° E 23:00:36 10° SSE
MTI 4.1 22:52:25 10° S 22:55:39 45° WSW 22:58:49 10° NNW
CZ-2C R/B 3.9 22:51:24 10° S 22:56:07 55° WSW 23:00:43 10° NNW
Cosmos 2061 Rocket 3.9 22:50:51 10° SSW 22:57:05 69° W 23:03:18 10° N
Shenzhou-11 Module 2.9 22:56:38 30° SW 22:57:35 39° S 23:00:34 10° ESE
CRYOSAT 2 4.3 22:54:21 10° N 22:59:13 72° W 23:04:09 10° S
Cosmos 1484 Rocket 2.8 22:56:03 10° N 23:00:04 73° WNW 23:04:06 10° SSW
Cosmos 292 Rocket 3.7 22:55:34 10° SSW 23:00:26 81° WNW 23:05:13 10° NNE
Cosmos 1408 Rocket 4.2 22:56:34 10° NW 23:00:28 31° WSW 23:04:25 10° SSW
Cosmos 540 Rocket 4.4 22:58:57 23° WSW 23:00:35 27° W 23:04:52 10° NNW
AQUARIUS 4.2 22:56:24 10° N 23:00:51 57° W 23:05:23 10° SSW
SeaSat 1 3.0 22:56:41 10° SSE 23:01:38 62° ENE 23:06:32 10° NNW
Cosmos 2100 Rocket 4.1 22:55:43 10° SSW 23:01:43 51° W 23:07:41 10° NNW
Meteor 2-10 4.0 22:57:33 10° SSW 23:02:40 61° W 23:07:52 10° N
ATLAS 3B R/B 3.1 22:57:58 10° NNW 23:04:25 66° ENE 23:11:12 10° SE
Gbstr 26 Del rocket 4.2 23:02:04 19° W 23:05:58 47° SSW 23:12:40 10° SE
SKYMED 2 4.0 23:03:18 10° SSE 23:07:43 68° E 23:12:04 10° N
Cosmos 1844 Rocket 3.3 23:02:40 10° NW 23:07:49 35° WSW 23:13:01 10° S
CORIOLIS 4.2 23:03:32 10° N 23:08:50 62° WNW 23:14:14 10° SSW
IDEFIX/ARIANE 42P 3.7 23:06:23 10° NW 23:10:26 22° W 23:13:52 13° SW
Ariane Rocket 3.8 23:06:08 10° NNW 23:10:32 29° W 23:15:01 10° SW
Cosmos 1328 4.4 23:09:37 10° NW 23:13:19 34° WSW 23:17:03 10° SSW
Cosmos 1459 Rocket 4.3 23:07:49 10° SSW 23:13:52 45° W 23:19:53 10° NNW
Cosmos 1725 Rocket 4.1 23:07:47 10° S 23:14:14 90° E 23:20:35 10° N
USA 116 4.0 23:12:07 10° S 23:15:29 38° WSW 23:19:12 10° NW
SL-08 R/B 4.4 23:09:29 10° S 23:15:39 75° W 23:21:50 10° N
Meteor 1-11 4.2 23:11:07 10° NNW 23:16:47 72° W 23:22:35 10° S
Cosmos 2016 Rocket 4.1 23:12:52 10° SSW 23:19:10 59° W 23:25:25 10° N
METEOR-M 4.5 23:15:48 10° NNE 23:21:09 71° ESE 23:26:34 10° S
EO 1 Del DPAF 4.1 23:18:55 10° S 23:22:19 29° WSW 23:25:41 10° NW
Cosmos 1300 3.8 23:19:14 10° SW 23:22:28 25° W 23:25:41 10° NW
Thor Agena Rocket 4.1 23:18:33 10° SSE 23:23:50 64° ENE 23:28:58 10° N
Cosmos 1607 4.2 23:20:01 10° NW 23:26:08 48° SW 23:32:12 10° SSE
Cosmos 1726 3.8 23:25:01 13° WSW 23:26:23 16° W 23:28:41 10° NW
Cosmos 2233 Rocket 4.4 23:20:54 10° S 23:27:18 71° E 23:33:36 10° NNE
Cosmos 1328 Rocket 4.4 23:25:02 10° SSW 23:28:59 31° W 23:32:52 10° NNW
CZ-4C R/B 4.3 23:26:04 11° WSW 23:29:29 14° SSW 23:33:03 10° S
USA 238 DEB 4.0 23:26:03 10° NNW 23:33:14 80° ENE 23:40:28 10° SE
USA 238 4.0 23:26:10 10° NNW 23:33:21 80° ENE 23:40:35 10° SE
Cosmos 1500 Rocket 4.1 23:29:29 10° NNW 23:33:40 39° WSW 23:37:57 10° S
Intercosmos 25 4.3 23:30:21 10° SSW 23:35:33 37° W 23:39:06 10° NNW
YAOGAN 1 3.3 23:32:56 10° NNW 23:36:54 34° W 23:40:56 10° SSW
Cosmos 2278 Rocket 2.4 23:33:16 10° NW 23:38:46 49° WSW 23:44:20 10° SSE
Cosmos 1151 Rocket 3.5 23:35:17 10° SSW 23:39:28 42° W 23:43:37 10° NNW
Cosmos 2228 Rocket 4.1 23:36:07 10° SSW 23:40:00 27° W 23:43:52 10° NNW
Cosmos 1626 2.7 23:37:18 10° NNW 23:40:48 36° WSW 23:44:21 10° S
FREGAT/IRIS 4.0 23:38:29 10° NNE 23:41:26 42° ESE 23:44:25 10° S
SJ-6B 4.4 23:38:50 10° NE 23:42:40 38° ESE 23:46:29 10° S
Meteor 1-28 Rocket 4.1 23:39:45 10° SSW 23:43:07 29° WSW 23:46:28 10° NW
NOAA 12 4.2 23:38:05 10° NNE 23:43:22 87° ESE 23:48:44 10° SSW
Cosmos 1455 2.3 23:42:41 10° SSW 23:46:39 66° W 23:50:32 10° N
Sich 1 4.0 23:43:27 10° N 23:47:46 55° E 23:52:05 10° SSE
GPS 2-04 Rocket1 3.6 23:45:26 10° WNW 23:49:07 46° N 23:53:00 10° E
